Date,TemperatureHighF,TemperatureAvgF,TemperatureLowF,DewpointHighF,DewpointAvgF,DewpointLowF,HumidityHigh,HumidityAvg,HumidityLow,PressureMaxIn,PressureMinIn,WindSpeedMaxMPH,WindSpeedAvgMPH,GustSpeedMaxMPH,PrecipitationSumIn
2013-6-1,88,74,63,69,64,27,93,74,20,29.90,29.69,12,1,16,0.41
2013-6-2,83,71,64,67,60,55,93,71,44,29.81,29.69,7,1,14,0.39
2013-6-3,73,62,52,56,52,40,86,69,49,29.98,29.80,7,2,10,0.00
2013-6-4,82,61,41,53,44,35,87,58,29,30.07,29.96,8,1,11,0.00
2013-6-5,89,68,51,62,51,42,83,57,33,30.03,29.79,6,1,11,0.20
2013-6-6,73,66,59,67,61,56,92,84,70,29.81,29.67,0,0,2,0.57
2013-6-7,71,61,55,56,54,51,94,80,59,29.81,29.71,0,0,2,0.00
2013-6-8,83,66,52,59,54,49,93,68,39,29.98,29.79,0,0,14,0.00
2013-6-9,87,72,60,64,60,56,87,69,40,30.02,29.86,0,0,24,0.00
2013-6-10,85,70,62,67,61,4,91,76,10,29.87,29.66,1,0,12,0.00
2013-6-11,88,70,61,65,58,27,92,69,20,29.85,29.73,2,0,7,0.00
2013-6-12,92,78,62,73,66,59,92,70,46,29.83,29.62,2,0,4,0.00
2013-6-13,78,69,58,70,60,52,93,74,46,29.79,29.42,15,0,19,0.00
2013-6-14,80,67,56,59,55,51,92,68,45,29.97,29.78,11,0,13,0.00
2013-6-15,86,67,50,62,55,48,95,70,36,30.04,29.88,2,0,4,0.00
2013-6-16,82,71,63,66,62,58,89,75,52,29.90,29.83,5,0,11,0.00
2013-6-17,89,74,64,68,64,59,94,74,44,29.88,29.80,6,0,8,0.00
2013-6-18,87,71,61,67,62,51,92,75,49,29.90,29.76,3,0,5,0.00
2013-6-19,86,67,53,57,50,44,82,59,26,30.05,29.89,4,0,8,0.00
2013-6-20,88,69,51,60,53,48,94,63,32,30.13,30.04,2,0,5,0.00
2013-6-21,93,73,54,65,58,52,93,65,32,30.15,30.05,3,0,6,0.00
2013-6-22,94,76,60,70,64,58,92,69,42,30.08,29.96,2,0,8,0.00
2013-6-23,95,77,62,71,64,57,93,67,39,30.05,29.94,4,0,7,0.00
2013-6-24,92,75,61,73,64,58,92,72,42,30.05,29.92,6,0,16,0.00
2013-6-25,94,78,66,73,68,62,91,73,46,29.97,29.79,3,0,8,0.00
2013-6-26,91,75,66,71,67,61,93,77,48,29.84,29.71,10,0,15,0.02
2013-6-27,88,73,67,72,67,62,93,80,51,29.72,29.57,10,0,11,0.00
2013-6-28,86,72,61,69,63,57,92,76,46,29.59,29.45,8,0,13,0.00
2013-6-29,85,67,59,66,60,56,93,78,48,29.60,29.47,8,0,14,0.00
2013-6-30,84,69,60,67,62,58,94,79,52,29.76,29.59,5,0,17,0.01